Погода в Марьине

Россия / Курская область     51°35′09″N   34°56′04″E
темп.,
°C
ветер,
м/с
пор.,
м/с
влажн.,
%
обл.,
%
осадки,
мм/ч
давл.,
гПа
погр.,
м
17 августа, ср
ср1700:00+23св51341100 0.0 1013336
03:00+23в5144199 0.0 1012450
06:00+24в61540100 0.0 1011630
09:00+22в51149100 0.3 1012374
12:00+24всв61151100 0.2 1012551
15:00+26в61149100 0.2 1012770
18:00+28всв7114199 0.0 1010759
21:00+24всв8174297 0.0 1010591
18 августа, чт
чт1800:00+22всв6154610 0.0 1010487
03:00+20всв5125226 0.0 1010295
06:00+18св512598 0.0 1010301
09:00+23всв710485 0.0 1011620
12:00+27всв683724 0.0 10101334
15:00+29всв6733100 0.0 10101723
18:00+27св6104435 0.0 1010645
21:00+23всв512545 0.0 1011420
19 августа, пт
пт1900:00+20св513630 0.0 1012331
03:00+19св512635 0.0 1012386
06:00+18всв614735 0.0 1013564
09:00+22всв710631 0.0 1014922
12:00+25всв685187 0.0 10141610
15:00+26св6850100 0.0 10131598
18:00+23в8115594 0.0 1014898
21:00+20всв8137251 0.0 1015614
20 августа, сб
сб2000:00+17всв6118336 0.0 1016508
03:00+15св38924 0.0 1015196
06:00+15всв23925 0.0 101673
09:00+21вюв69638 0.3 1016633
12:00+25вюв8104641 0.2 10171080
15:00+25вюв7104094 0.2 10171338
18:00+23вюв7124499 0.0 1017849
21:00+21в5123993 0.0 1017376
21 августа, вс
вс2100:00+22вюв11183599 0.0 1016580
03:00+22в7142583 0.0 1016665
06:00+22вюв61226100 0.2 1016518
09:00+20вюв61228100 0.2 1017436
12:00+25вюв7928100 0.0 10171076
15:00+26вюв81124100 0.0 10161148
18:00+24вюв61227100 0.0 1016830
21:00+23в6142694 0.0 1016422